RRR4253 EPGD-EGVN

Flight info

Callsign RRR4253
Flight time N/A
Altitude 32000
Route DEXIR DCT BINKA L23 WSN N125 SILQI N872 PAM L980 IDRID M40 SABER L980 LAM L179 SAWPE
Aircraft A400/H-SDE2E3FGHIJ4J5M1RWXY/LB1D1

Departure

Time 2026-05-08 06:56
Airport Gdańsk Lech Wałęsa Airport (EPGD)

Arrival

Time N/A
Airport RAF Brize Norton (EGVN)
Time Latitude Longitude Altitude Speed Heading
2026-05-08 06:37 54.37910 18.47098 468 ft 0 kts 23°
2026-05-08 06:46 54.37891 18.47082 467 ft 4 kts 31°
2026-05-08 06:46 54.37869 18.47056 463 ft 4 kts 45°
2026-05-08 06:46 54.37853 18.47020 466 ft 4 kts 66°
2026-05-08 06:47 54.37848 18.46979 464 ft 3 kts 109°
2026-05-08 06:47 54.37851 18.46966 466 ft 0 kts 113°
2026-05-08 06:50 54.37850 18.46969 465 ft 2 kts 113°
2026-05-08 06:50 54.37841 18.47007 466 ft 5 kts 113°
2026-05-08 06:50 54.37823 18.47077 469 ft 7 kts 113°
2026-05-08 06:50 54.37799 18.47178 469 ft 10 kts 112°
2026-05-08 06:51 54.37770 18.47298 467 ft 11 kts 112°
2026-05-08 06:51 54.37739 18.47420 470 ft 11 kts 114°
2026-05-08 06:51 54.37709 18.47536 472 ft 11 kts 113°
2026-05-08 06:51 54.37679 18.47660 474 ft 11 kts 112°
2026-05-08 06:52 54.37648 18.47787 477 ft 12 kts 112°
2026-05-08 06:52 54.37638 18.47828 476 ft 3 kts 112°
2026-05-08 06:52 54.37627 18.47857 473 ft 1 kts 153°
2026-05-08 06:52 54.37618 18.47853 474 ft 0 kts 187°
2026-05-08 06:53 54.37617 18.47832 476 ft 3 kts 296°
2026-05-08 06:53 54.37671 18.47720 475 ft 9 kts 300°
2026-05-08 06:53 54.37694 18.47599 469 ft 13 kts 291°
2026-05-08 06:53 54.37736 18.47434 468 ft 17 kts 294°
2026-05-08 06:54 54.37785 18.47233 469 ft 19 kts 293°
2026-05-08 06:54 54.37829 18.47023 469 ft 19 kts 274°
2026-05-08 06:54 54.37813 18.46793 467 ft 13 kts 261°
2026-05-08 06:54 54.37776 18.46803 467 ft 8 kts 144°
2026-05-08 06:55 54.37721 18.46884 465 ft 12 kts 139°
2026-05-08 06:55 54.37664 18.46996 467 ft 12 kts 113°
2026-05-08 06:55 54.37573 18.47370 470 ft 77 kts 114°
2026-05-08 06:55 54.37248 18.48702 538 ft 157 kts 111°
2026-05-08 06:56 54.36786 18.50520 1176 ft 174 kts 110°
2026-05-08 06:56 54.36278 18.52494 2022 ft 186 kts 109°
2026-05-08 06:56 54.35755 18.54612 2833 ft 202 kts 107°
2026-05-08 06:56 54.35208 18.56870 3760 ft 208 kts 107°
2026-05-08 06:57 54.34642 18.59183 4550 ft 212 kts 108°
2026-05-08 06:57 54.34059 18.61538 5429 ft 217 kts 109°
2026-05-08 06:57 54.33309 18.63798 6618 ft 222 kts 125°
2026-05-08 06:57 54.32062 18.65436 7659 ft 234 kts 153°
2026-05-08 06:58 54.30423 18.65805 8713 ft 247 kts 184°
2026-05-08 06:58 54.28760 18.64941 9828 ft 252 kts 198°
2026-05-08 06:58 54.27160 18.63672 10882 ft 256 kts 208°
2026-05-08 06:58 54.25808 18.61666 11884 ft 264 kts 230°
2026-05-08 06:59 54.25065 18.58719 12589 ft 284 kts 259°
2026-05-08 06:59 54.25015 18.55181 12997 ft 311 kts 272°
2026-05-08 06:59 54.25189 18.51377 13568 ft 327 kts 274°
2026-05-08 06:59 54.25384 18.47477 14427 ft 330 kts 274°
2026-05-08 07:00 54.25563 18.43567 15303 ft 331 kts 272°
2026-05-08 07:00 54.25727 18.39626 16219 ft 332 kts 271°
2026-05-08 07:00 54.25830 18.36996 16829 ft 334 kts 271°
2026-05-08 07:00 54.25980 18.33015 17739 ft 339 kts 272°
2026-05-08 07:01 54.26128 18.28972 18575 ft 343 kts 272°
2026-05-08 07:01 54.26274 18.24881 19349 ft 346 kts 271°
2026-05-08 07:01 54.26440 18.19402 20223 ft 350 kts 268°
2026-05-08 07:01 54.26333 18.15223 20913 ft 352 kts 263°
2026-05-08 07:02 54.26126 18.11037 21610 ft 354 kts 263°
2026-05-08 07:02 54.25972 18.08198 22071 ft 356 kts 262°
2026-05-08 07:02 54.25739 18.03960 22745 ft 360 kts 262°
2026-05-08 07:02 54.25508 17.99744 23419 ft 363 kts 262°
2026-05-08 07:03 54.25272 17.95425 24019 ft 366 kts 262°
2026-05-08 07:03 54.25033 17.91079 24577 ft 369 kts 262°
2026-05-08 07:03 54.24793 17.86703 25119 ft 371 kts 262°
2026-05-08 07:03 54.24549 17.82293 25625 ft 373 kts 262°
2026-05-08 07:04 54.24302 17.77856 26126 ft 376 kts 263°
2026-05-08 07:04 54.24050 17.73363 26534 ft 381 kts 263°
2026-05-08 07:04 54.23796 17.68845 26969 ft 383 kts 263°
2026-05-08 07:04 54.23538 17.64296 27421 ft 385 kts 263°
2026-05-08 07:05 54.23277 17.59717 27830 ft 387 kts 263°
2026-05-08 07:05 54.23013 17.55136 28320 ft 386 kts 263°
2026-05-08 07:05 54.22750 17.50579 28792 ft 386 kts 263°
2026-05-08 07:05 54.22455 17.45994 29122 ft 389 kts 261°
2026-05-08 07:06 54.22001 17.41413 29426 ft 392 kts 258°
2026-05-08 07:06 54.21446 17.36848 29776 ft 393 kts 257°
2026-05-08 07:06 54.20845 17.32345 30110 ft 394 kts 256°
2026-05-08 07:06 54.20214 17.27780 30454 ft 394 kts 256°
2026-05-08 07:07 54.19578 17.23210 30732 ft 396 kts 256°
2026-05-08 07:07 54.18947 17.18646 31074 ft 395 kts 257°
2026-05-08 07:07 54.17677 17.09349 31362 ft 405 kts 258°
2026-05-08 07:08 54.17044 17.04679 31748 ft 402 kts 258°
2026-05-08 07:08 54.16416 17.00051 32116 ft 399 kts 257°
2026-05-08 07:08 54.15787 16.95420 32218 ft 401 kts 258°
2026-05-08 07:08 54.15154 16.90774 32226 ft 401 kts 258°
2026-05-08 07:09 54.13885 16.81512 32222 ft 401 kts 257°
2026-05-08 07:09 54.12607 16.72253 32221 ft 400 kts 257°
2026-05-08 07:10 54.11324 16.63011 32221 ft 400 kts 257°
2026-05-08 07:10 54.10047 16.53874 32218 ft 397 kts 258°
2026-05-08 07:11 54.08764 16.44740 32223 ft 396 kts 258°
2026-05-08 07:11 54.07478 16.35641 32223 ft 395 kts 258°
2026-05-08 07:12 54.06184 16.26542 32224 ft 395 kts 258°
2026-05-08 07:12 54.04883 16.17450 32226 ft 395 kts 258°
2026-05-08 07:13 54.03575 16.08359 32220 ft 395 kts 257°
2026-05-08 07:13 54.02259 15.99265 32222 ft 395 kts 257°
2026-05-08 07:14 54.00938 15.90191 32218 ft 395 kts 257°
2026-05-08 07:14 53.99611 15.81133 32223 ft 395 kts 257°
2026-05-08 07:15 53.98288 15.72150 32221 ft 394 kts 257°
2026-05-08 07:15 53.96951 15.63122 32217 ft 392 kts 257°
2026-05-08 07:16 53.95619 15.54187 32227 ft 390 kts 256°
2026-05-08 07:16 53.94280 15.45246 32227 ft 391 kts 257°
2026-05-08 07:17 53.92936 15.36326 32221 ft 390 kts 256°
2026-05-08 07:17 53.91584 15.27395 32223 ft 390 kts 256°
2026-05-08 07:18 53.90227 15.18486 32223 ft 390 kts 256°
2026-05-08 07:18 53.88862 15.09580 32220 ft 390 kts 256°
2026-05-08 07:19 53.87494 15.00697 32221 ft 390 kts 256°
2026-05-08 07:19 53.86117 14.91802 32221 ft 391 kts 256°
2026-05-08 07:20 53.84741 14.82964 32215 ft 390 kts 256°
2026-05-08 07:20 53.83352 14.74086 32217 ft 390 kts 256°
2026-05-08 07:21 53.81959 14.65234 32215 ft 387 kts 255°
2026-05-08 07:21 53.80566 14.56430 32219 ft 389 kts 255°
2026-05-08 07:22 53.79161 14.47598 32217 ft 387 kts 255°
2026-05-08 07:22 53.77753 14.38790 32216 ft 388 kts 255°
2026-05-08 07:23 53.76398 14.29949 32212 ft 387 kts 260°
2026-05-08 07:23 53.75999 14.20942 32215 ft 387 kts 269°
2026-05-08 07:24 53.76007 14.11811 32209 ft 388 kts 270°
2026-05-08 07:24 53.76090 14.02700 32218 ft 387 kts 270°
2026-05-08 07:25 53.76161 13.93580 32219 ft 389 kts 270°
2026-05-08 07:26 53.76229 13.79886 32215 ft 387 kts 270°
2026-05-08 07:26 53.76256 13.70776 32222 ft 389 kts 270°
2026-05-08 07:27 53.76273 13.61686 32216 ft 389 kts 270°
2026-05-08 07:27 53.76259 13.52544 32222 ft 388 kts 269°
2026-05-08 07:28 53.76174 13.43417 32219 ft 389 kts 269°
2026-05-08 07:28 53.76067 13.34292 32218 ft 387 kts 269°
2026-05-08 07:29 53.75961 13.25246 32212 ft 387 kts 269°
2026-05-08 07:29 53.75851 13.16162 32216 ft 386 kts 269°
2026-05-08 07:30 53.75736 13.07080 32215 ft 386 kts 269°
2026-05-08 07:30 53.75615 12.97996 32213 ft 387 kts 269°
2026-05-08 07:31 53.75486 12.88907 32213 ft 386 kts 269°
2026-05-08 07:31 53.75351 12.79821 32208 ft 386 kts 269°
2026-05-08 07:32 53.75225 12.70799 32208 ft 386 kts 269°
2026-05-08 07:32 53.75104 12.61702 32209 ft 386 kts 269°
2026-05-08 07:33 53.74976 12.52623 32208 ft 387 kts 269°
2026-05-08 07:33 53.74830 12.43540 32209 ft 387 kts 268°
2026-05-08 07:34 53.74641 12.34460 32208 ft 387 kts 268°
2026-05-08 07:34 53.74438 12.25381 32209 ft 387 kts 268°
2026-05-08 07:35 53.74231 12.16298 32209 ft 387 kts 268°
2026-05-08 07:35 53.74025 12.07222 32207 ft 387 kts 268°
2026-05-08 07:36 53.73824 11.98127 32203 ft 387 kts 268°
2026-05-08 07:36 53.73618 11.89097 32203 ft 387 kts 268°
2026-05-08 07:37 53.73406 11.79999 32201 ft 388 kts 268°
2026-05-08 07:37 53.73199 11.70982 32207 ft 387 kts 268°
2026-05-08 07:38 53.72986 11.61893 32205 ft 387 kts 268°
2026-05-08 07:38 53.72766 11.52797 32213 ft 387 kts 267°
2026-05-08 07:39 53.72534 11.43683 32206 ft 388 kts 267°
2026-05-08 07:39 53.72286 11.34583 32205 ft 388 kts 267°
2026-05-08 07:40 53.72028 11.25473 32206 ft 388 kts 266°
2026-05-08 07:40 53.71764 11.16393 32203 ft 387 kts 266°
2026-05-08 07:41 53.71497 11.07374 32207 ft 386 kts 266°
2026-05-08 07:41 53.71221 10.98317 32208 ft 386 kts 266°